Dewpoint
60 54 50 51 52 53 44 44 27 36 32 29 26 29 21 26 29 24 30 35 36 39 45 47 46 47 47 50 53 54 55 52 53 45 45 57 62 62 65 68 68 69 69 69 69 70 70 71 71 70 70 69 69 68 68 67 67 67 67 66 65 65 66 66 66 65 64 64 64 64 66 67 67 67 67 68 69 69 69 68 67 66 65 65 65 65 65 65 65 65 66 65 64 64 64 63 63
56 51 43 44 45 44 41 35 31 29 30 26 25 27 24 36 40 39 38 40 42 42 47 46 46 46 54 55 55 54 55 56 57 57 58 61 60 60 65 67 68 68 69 69 69 69 70 70 71 70 70 70 69 68 68 67 66 66 66 65 66 65 65 66 66 65 65 66 66 65 65 65 66 67 67 67 67 67 67 67 67 67 66 65 66 66 65 65 65 65 64 65 65 63 63 63 63
55 52 44 46 44 44 43 37 31 29 27 21 21 23 31 37 38 40 41 42 43 46 46 45 46 47 47 51 54 54 52 57 57 58 58 60 57 59 62 67 67 68 68 69 69 69 69 70 70 70 70 70 69 68 67 66 65 65 65 64 66 65 64 64 64 64 65 66 65 64 66 66 66 66 66 66 67 67 68 68 67 67 67 65 64 65 66 66 65 66 65 66 65 64 63 63 63
54 52 49 46 37 42 37 35 35 27 26 25 23 29 38 39 40 42 43 43 43 44 44 43 47 50 49 52 54 56 55 56 58 57 57 57 56 59 60 65 68 67 68 69 69 69 69 70 70 71 70 69 68 67 66 66 66 65 65 65 65 66 65 66 66 65 66 65 65 64 64 65 66 66 66 65 66 67 67 67 67 67 66 67 66 66 66 65 65 66 66 65 65 65 63 63 63
49 51 52 43 40 38 36 33 28 29 21 23 19 24 39 41 41 42 43 44 44 43 44 43 48 47 52 54 54 54 54 57 57 58 57 58 58 58 60 64 66 67 67 68 69 69 69 69 70 70 70 69 68 66 66 67 66 66 65 65 67 66 66 65 65 65 65 66 65 65 64 64 64 65 64 64 66 66 67 66 66 66 65 65 65 65 65 66 66 66 65 65 66 65 63 63 63
47 48 53 44 37 39 36 30 31 22 22 25 19 30 40 40 40 42 43 44 43 44 44 43 46 47 54 55 56 56 57 53 56 57 57 57 58 58 59 60 65 66 67 68 68 69 69 69 70 70 70 69 67 66 65 66 65 64 64 65 66 66 65 65 66 66 65 65 64 62 63 64 64 64 65 66 66 67 67 67 66 66 65 66 65 65 65 66 66 65 65 65 65 64 63 63 63
47 40 47 44 43 38 34 31 31 26 21 22 20 29 39 40 42 42 42 42 42 42 43 44 47 53 52 55 56 58 59 57 57 57 59 58 58 58 59 58 65 66 67 68 69 69 69 69 70 71 70 69 68 66 66 66 65 63 64 66 66 65 65 64 64 64 63 63 63 64 64 65 64 65 66 66 66 66 66 66 66 66 66 65 65 65 65 65 65 65 65 65 65 64 64 63 63
51 37 39 34 35 34 33 32 31 30 21 23 23 36 39 41 41 41 41 39 37 36 37 43 44 47 52 55 55 58 59 59 58 59 59 58 59 59 59 57 65 66 67 68 69 69 70 69 70 70 70 69 68 67 66 66 65 64 64 65 66 64 62 63 63 63 64 64 65 65 65 64 64 65 65 65 65 65 65 65 65 65 65 66 65 65 64 65 65 64 65 65 65 64 64 63 63
46 38 48 40 35 39 33 32 32 22 23 25 23 28 43 39 38 38 35 38 38 40 40 38 45 43 53 56 56 58 58 59 59 60 59 58 58 60 57 59 65 66 68 68 69 69 69 69 69 70 69 69 69 67 66 66 66 65 66 65 65 65 63 63 63 65 66 66 66 65 65 64 64 63 63 64 64 65 65 66 65 65 65 65 64 64 64 64 64 64 65 64 64 64 63 63 63
42 38 34 36 39 34 35 33 21 22 25 26 23 23 27 30 35 28 29 31 32 41 42 42 41 47 55 55 56 58 58 59 59 59 59 59 59 59 58 65 67 67 68 68 69 69 69 70 68 69 69 69 69 68 67 67 66 66 65 66 66 65 64 63 65 66 66 66 65 64 64 65 64 64 64 64 66 66 66 66 66 66 66 66 66 65 65 65 65 64 64 64 64 63 63 63 63
38 42 46 38 36 35 36 34 26 23 23 25 24 27 25 28 34 33 30 29 36 41 42 38 36 48 56 56 56 59 60 59 58 58 59 59 60 57 60 66 66 67 67 67 68 68 68 68 69 67 68 68 68 68 68 67 66 65 68 68 68 66 65 64 64 65 65 64 64 64 64 64 64 64 64 63 64 65 65 65 65 65 65 65 65 65 65 65 64 64 64 64 63 63 63 63 62
36 38 41 36 34 35 35 32 35 25 30 32 29 31 28 29 35 30 29 38 41 42 41 39 39 35 55 56 56 58 59 59 58 59 59 60 59 60 60 63 65 65 67 68 68 68 68 68 67 69 66 67 67 67 67 67 67 68 69 68 68 67 66 65 65 66 64 64 63 62 63 63 63 64 64 64 64 64 64 64 64 64 64 65 65 65 65 65 65 65 64 64 63 63 63 63 62
42 45 36 33 35 37 35 32 34 35 31 29 31 30 31 31 32 34 29 31 38 39 36 38 42 32 49 55 57 59 58 59 58 59 60 59 59 59 60 62 65 66 67 67 68 68 67 66 66 66 65 65 65 66 66 66 67 68 69 68 68 68 67 66 66 65 64 62 62 64 65 65 65 66 65 65 64 64 64 64 64 64 65 65 65 65 65 65 65 65 65 64 64 63 62 62 62
41 43 41 36 38 36 33 34 34 29 28 30 29 33 33 32 36 33 26 31 36 36 37 33 38 50 56 57 57 58 58 59 58 59 59 59 59 59 60 63 65 65 66 66 67 67 67 66 65 65 65 65 65 65 65 66 67 68 68 68 69 68 68 68 68 67 68 68 68 67 67 67 67 67 66 67 66 66 66 65 64 65 65 65 64 64 65 65 64 65 65 64 64 63 62 62 62
40 43 39 38 33 34 36 32 33 29 25 27 28 33 34 37 34 34 39 42 43 46 44 49 47 38 48 55 54 57 58 58 58 59 59 60 59 60 61 62 64 65 64 65 67 67 66 65 64 64 65 65 66 65 64 65 65 67 68 68 68 68 68 68 68 67 66 67 67 66 66 65 65 65 65 65 65 65 65 65 66 65 64 64 64 64 64 64 64 64 64 64 64 63 62 62 62
46 44 39 37 33 34 34 34 35 25 24 26 29 35 33 33 35 32 35 39 42 43 39 36 43 41 47 54 56 58 58 58 58 59 59 59 60 60 60 60 61 62 63 65 65 66 66 65 64 64 64 65 65 65 64 64 65 65 66 66 67 67 67 67 66 65 64 64 64 63 63 62 62 62 62 62 63 64 64 64 65 65 63 63 63 64 64 64 63 64 64 64 63 63 63 62 63
47 47 34 35 40 33 36 35 30 34 27 30 31 34 31 34 34 33 35 38 40 39 43 45 41 52 57 56 57 59 58 58 58 59 58 58 58 58 58 58 58 59 62 64 64 65 65 64 63 63 63 64 65 65 64 64 65 64 64 64 65 65 65 65 64 62 61 61 61 60 61 61 61 61 60 59 59 61 61 61 64 65 65 64 64 64 64 64 63 63 63 63 62 63 61 61 61
43 37 37 35 36 34 36 34 28 30 27 27 25 25 32 31 33 34 34 34 35 39 46 47 53 54 58 58 58 58 58 58 58 58 57 57 57 57 57 58 58 58 58 61 62 65 65 64 63 63 63 64 65 65 64 64 64 64 64 64 65 64 62 61 62 63 63 61 59 60 61 61 61 60 60 61 59 59 60 60 62 64 64 64 64 64 64 63 63 63 63 63 63 63 61 58 58
39 38 36 32 35 37 31 28 25 24 22 24 25 24 29 31 33 34 31 32 34 37 41 47 49 53 58 58 58 58 58 58 58 57 57 57 57 56 56 57 57 58 57 58 60 64 64 64 64 63 62 63 64 64 64 64 64 63 63 64 64 62 62 62 62 63 62 61 61 61 61 60 60 60 61 61 60 57 58 59 61 62 63 62 63 63 63 63 63 63 63 63 63 63 59 58 58
40 38 34 34 38 29 28 27 24 24 22 22 24 25 24 25 32 35 32 31 33 36 37 45 48 51 57 58 58 58 58 58 58 57 57 56 56 56 56 57 57 57 57 58 58 63 63 63 63 63 62 63 64 64 63 63 63 63 63 63 62 62 62 62 62 62 62 61 61 61 61 60 61 61 62 61 59 57 57 58 59 60 60 60 61 61 62 62 63 63 63 63 63 59 58 58 58
41 39 36 38 36 33 26 24 25 24 24 22 23 25 23 25 27 29 30 28 29 31 36 44 44 49 57 58 58 58 58 58 58 57 57 56 55 56 56 57 56 57 57 58 58 59 59 61 60 61 61 63 63 63 63 63 63 63 63 63 62 62 61 61 62 62 61 61 61 61 60 61 61 60 60 59 58 58 57 57 57 57 58 57 58 58 58 56 58 57 56 58 57 57 57 57 56
42 37 39 40 38 35 27 24 25 25 27 23 23 23 24 26 25 25 25 25 24 26 26 37 44 49 57 58 58 58 58 58 58 57 57 56 55 54 55 56 56 57 58 57 58 58 58 59 60 59 60 60 62 62 62 62 62 61 62 62 62 62 61 61 61 61 61 60 59 59 60 60 59 59 58 58 58 58 58 57 57 57 57 57 57 58 58 57 55 56 57 57 57 57 57 57 56
37 38 38 39 35 33 24 24 27 27 27 25 27 31 33 29 28 26 24 24 25 26 27 26 38 49 57 59 59 59 58 58 58 57 57 56 56 54 54 56 56 56 57 57 58 57 58 58 59 59 59 59 60 60 61 60 60 60 61 62 62 61 61 61 60 60 61 60 59 59 59 59 58 58 57 56 58 59 58 58 57 57 57 58 57 58 58 58 56 57 57 58 57 57 57 57 57
39 38 38 38 39 31 24 25 29 26 30 28 29 34 32 34 36 30 24 25 25 25 29 27 39 49 55 59 59 59 58 58 58 58 57 56 56 54 54 55 55 57 57 57 58 57 58 58 59 58 58 59 59 58 60 59 59 60 60 61 61 60 60 60 59 59 60 60 59 59 58 58 58 57 57 56 57 58 58 58 58 58 58 58 56 57 57 57 57 56 56 55 56 56 56 57 58
38 38 38 38 32 25 26 26 26 30 30 31 31 31 32 35 35 31 30 30 30 31 30 28 33 48 51 58 59 59 59 59 58 58 58 57 57 56 55 54 55 57 57 57 58 58 58 58 58 58 58 58 59 58 59 59 59 60 59 60 60 60 60 60 60 59 60 60 59 59 58 57 57 58 58 58 58 58 58 58 58 58 58 58 57 57 57 56 57 57 56 56 56 57 56 56 57
38 38 39 36 24 26 27 28 29 31 32 33 32 31 32 34 33 30 31 31 31 34 29 29 30 46 48 55 59 58 59 59 59 59 58 58 57 56 56 54 55 56 57 58 58 58 58 58 58 58 58 58 59 58 58 59 59 59 59 59 59 59 60 59 59 59 60 60 60 59 58 57 58 58 58 58 58 58 58 58 58 58 58 58 57 58 57 57 58 59 57 57 56 56 56 55 55
39 39 39 32 24 27 28 28 29 31 36 33 33 33 35 35 33 32 33 30 32 33 31 30 29 31 48 50 56 58 58 58 59 59 59 59 57 56 56 57 55 56 56 57 58 58 58 58 58 58 58 58 59 59 59 59 59 59 59 59 59 59 60 59 59 59 60 60 60 60 58 58 58 58 59 59 59 59 59 59 59 59 58 59 58 59 59 58 57 57 58 56 56 56 56 56 54
38 38 38 32 26 30 29 29 30 33 34 34 33 33 36 36 33 33 33 28 31 31 30 30 31 30 30 43 50 54 57 58 58 59 58 58 58 56 56 56 55 56 56 56 58 58 58 58 58 58 58 58 58 59 59 58 58 59 60 59 59 60 59 59 59 59 59 60 60 60 58 59 58 59 59 59 59 59 59 59 59 59 58 59 58 58 58 58 57 57 57 56 56 56 55 54 54
38 37 36 35 33 31 32 32 35 34 34 36 35 36 35 35 32 33 33 32 28 30 29 30 32 32 32 34 49 51 53 55 57 58 58 59 59 58 57 56 57 55 56 56 57 58 57 58 58 58 59 59 58 58 59 58 58 59 60 59 59 60 60 59 60 59 58 58 59 60 59 58 59 60 59 60 59 60 59 59 58 59 59 59 58 58 57 56 56 56 56 56 56 56 55 56 56
38 37 36 34 34 33 34 36 37 34 36 37 36 33 34 35 35 36 33 32 28 28 29 31 33 34 34 35 43 50 51 51 55 57 58 58 59 59 58 57 58 56 55 55 57 57 58 58 58 59 58 58 58 58 59 59 58 59 60 60 59 61 60 59 60 60 58 57 58 59 59 59 59 60 60 60 59 60 59 59 59 58 58 58 58 58 57 56 56 56 56 56 57 56 56 56 55
36 36 37 36 34 34 36 36 37 35 37 37 37 34 35 38 39 39 39 35 29 28 30 32 34 35 35 36 39 44 50 51 52 55 57 58 59 59 59 58 58 58 57 55 56 57 58 58 58 58 58 58 58 58 58 59 59 59 60 60 59 61 60 59 60 60 58 58 58 59 59 59 59 60 60 60 59 59 59 59 58 58 58 58 58 58 57 57 56 56 55 55 55 55 55 55 55
37 35 34 37 35 37 36 37 37 35 32 37 37 35 35 37 38 39 39 38 32 30 31 33 34 33 35 35 37 40 47 50 51 54 56 57 59 59 59 59 58 58 59 56 56 57 57 58 58 58 58 58 58 58 59 59 59 60 60 60 60 61 60 59 59 59 58 58 59 59 59 59 59 60 60 60 60 59 59 58 58 58 58 58 58 57 57 56 56 56 56 55 54 53 53 53 53
37 35 35 35 36 36 36 38 37 38 31 34 36 35 38 38 39 40 38 36 34 33 33 33 33 32 33 34 36 39 44 49 51 53 55 56 58 59 59 59 58 58 59 59 55 56 57 57 58 58 58 58 58 58 59 59 60 60 60 60 60 61 60 59 59 59 58 58 60 60 60 60 60 61 61 60 60 59 59 59 59 59 58 57 57 57 57 56 55 56 55 55 54 52 53 53 53
35 37 36 38 35 36 35 38 38 39 33 32 34 36 36 38 32 29 32 31 32 32 31 30 31 33 33 35 36 39 43 47 49 51 54 56 57 58 59 58 58 58 59 59 57 56 56 57 57 58 58 58 58 58 59 59 59 60 60 60 59 61 60 60 59 59 59 59 59 61 60 60 60 61 61 60 60 59 59 59 59 59 59 57 57 57 57 57 56 56 55 54 54 53 52 53 54
35 35 35 36 37 36 36 36 37 37 32 33 33 35 36 37 39 38 28 31 29 29 29 30 30 31 32 34 36 38 42 46 49 50 53 56 56 58 58 58 58 58 59 59 58 56 56 56 56 57 57 58 58 58 58 59 59 60 60 60 59 61 61 60 59 59 59 59 59 61 61 60 60 61 61 60 60 59 59 59 59 59 58 57 57 57 57 56 56 56 55 55 54 55 54 54 55
36 36 36 36 36 36 36 37 37 38 32 32 32 33 34 36 37 37 37 30 27 29 29 30 30 30 29 29 36 38 41 44 48 50 51 55 57 57 57 57 58 58 58 59 58 57 56 56 56 56 57 58 59 58 58 59 59 59 59 59 59 59 60 59 59 59 58 58 58 59 61 61 60 60 60 60 60 60 60 60 59 59 58 58 57 57 57 57 56 55 55 55 55 54 54 55 55
38 37 36 35 36 36 38 38 36 39 35 33 33 33 34 35 35 36 35 35 31 26 26 27 27 27 26 25 34 39 40 42 46 49 52 53 56 57 57 57 57 58 58 58 58 58 56 56 55 55 56 57 58 58 58 58 58 58 59 58 58 58 59 59 58 58 57 57 57 57 60 61 60 60 60 60 60 59 60 60 59 59 59 58 58 57 57 57 57 57 56 56 56 55 54 54 54
38 38 37 36 37 35 38 39 36 37 36 34 35 34 34 34 34 34 34 33 33 33 30 28 26 26 26 26 27 37 40 43 45 46 50 53 55 57 57 57 57 58 58 58 58 59 58 56 55 55 56 56 58 58 57 57 58 58 58 58 58 58 58 58 58 57 57 57 57 57 58 60 60 59 59 59 59 60 60 60 59 59 59 59 58 58 58 56 57 57 57 56 56 56 55 56 55
41 38 38 39 38 38 39 31 36 35 35 34 34 34 35 36 36 37 36 36 35 34 33 33 31 29 27 27 27 28 38 40 42 44 47 52 54 56 57 57 58 58 58 58 59 59 59 58 56 56 56 56 56 57 57 57 58 58 58 58 57 57 58 58 58 57 56 57 57 57 57 60 60 59 59 59 60 60 60 60 59 59 59 59 58 58 58 57 57 57 57 58 54 54 54 55 55
39 41 39 39 41 39 38 33 32 34 34 33 34 33 34 34 34 35 36 36 36 37 36 35 35 33 32 30 28 28 30 38 39 41 44 49 53 55 57 57 57 58 58 58 59 59 59 59 58 57 56 56 56 56 56 57 57 57 58 57 57 57 57 57 58 57 56 58 58 58 57 59 59 59 59 59 60 60 60 60 60 59 60 59 59 59 58 58 57 58 58 57 57 55 54 56 55
40 41 41 40 41 41 39 32 32 32 31 33 31 31 31 31 31 32 34 35 36 36 36 36 37 38 36 36 35 32 28 32 38 40 42 46 51 53 56 57 57 58 58 58 59 59 59 59 60 59 58 57 57 55 56 57 56 56 56 56 56 56 57 57 57 58 57 57 58 60 59 59 59 59 59 59 59 60 61 60 60 60 60 60 59 59 59 58 58 58 58 57 57 57 54 54 55
39 41 43 43 43 44 44 35 31 32 32 34 32 30 32 32 32 32 33 34 34 35 35 35 35 36 37 36 34 33 35 32 34 38 41 44 49 53 55 57 57 57 58 58 59 59 59 60 60 60 60 59 58 57 56 57 56 56 56 56 56 55 55 57 56 56 58 57 58 60 61 60 60 60 60 60 60 60 61 61 60 60 60 60 60 60 59 59 58 58 58 58 57 56 56 54 54
38 39 44 44 44 45 44 37 39 34 31 34 33 31 30 31 30 30 31 32 32 34 35 35 35 35 34 36 37 35 34 33 34 35 40 43 47 52 54 56 57 57 57 58 59 59 59 59 60 60 60 60 60 59 58 57 57 57 56 55 55 55 54 56 57 57 57 59 59 60 61 62 61 61 61 60 61 60 61 61 61 60 60 60 60 60 59 59 59 58 58 58 58 56 55 55 54
37 42 44 44 44 44 44 43 39 37 37 37 33 32 29 30 32 33 32 31 30 30 30 34 35 35 34 34 35 36 37 36 35 34 36 42 45 50 53 55 56 57 57 58 58 58 59 59 60 60 60 60 61 60 60 59 58 58 57 56 56 55 55 54 57 57 58 59 60 60 61 62 62 62 61 61 61 61 61 61 61 60 60 60 59 60 60 59 59 59 58 59 58 57 56 56 54
40 44 45 43 44 44 42 40 37 36 34 33 31 34 30 30 32 34 34 32 32 30 30 30 33 35 35 36 36 36 36 37 37 36 35 39 43 47 51 54 56 57 57 57 58 58 58 59 59 60 60 60 60 61 60 60 59 59 59 58 57 57 57 57 58 59 59 59 60 61 61 61 62 62 62 62 62 62 60 61 61 61 60 60 59 59 60 59 59 58 58 58 58 57 57 56 55
44 46 46 43 41 40 41 37 36 35 34 33 32 34 30 31 32 32 34 32 31 31 30 30 30 30 35 36 36 36 36 37 38 37 36 37 41 45 50 53 55 57 57 57 57 58 58 58 58 59 59 59 59 60 60 60 60 59 60 60 59 58 58 59 59 60 60 60 60 61 61 61 61 62 62 62 62 62 61 61 61 61 61 60 58 59 59 59 59 59 58 58 58 57 57 56 56
45 45 43 40 39 37 37 36 34 34 33 34 34 34 32 30 29 28 30 33 32 31 31 32 33 33 32 33 35 37 36 36 38 39 37 37 40 43 47 51 54 56 57 57 57 58 58 58 58 58 59 59 59 59 60 60 60 60 60 60 60 59 59 59 59 60 60 60 60 60 61 61 61 62 62 62 62 62 62 61 61 61 61 60 59 59 59 59 59 59 58 58 57 57 57 57 55
43 40 39 39 37 37 35 33 34 33 32 33 34 34 31 30 28 29 28 30 33 30 29 31 32 33 34 35 34 34 36 36 37 38 38 36 37 39 42 48 52 54 56 56 57 57 57 58 58 57 58 58 59 59 59 60 60 60 60 60 60 60 60 60 59 60 60 60 60 61 61 61 62 62 62 62 62 62 62 62 61 61 61 61 60 60 60 59 59 59 58 58 58 57 57 56 56
42 42 40 36 33 34 32 33 32 33 32 27 30 34 30 30 30 29 31 31 30 32 32 32 32 32 34 35 36 37 38 38 38 38 38 38 37 37 37 41 49 52 54 55 56 57 57 57 57 57 57 58 58 59 59 59 60 60 60 60 60 60 60 60 60 60 60 60 61 60 60 61 61 61 62 62 62 62 62 62 61 61 61 60 60 60 59 59 59 59 59 58 58 58 58 57 56
42 39 37 34 31 30 29 31 31 30 31 30 32 31 30 31 31 33 32 32 31 31 32 33 33 32 33 35 37 38 38 38 38 38 38 38 38 38 38 37 42 49 52 54 55 56 57 57 57 57 57 58 58 59 59 59 60 60 60 60 60 60 60 60 60 60 60 60 61 60 60 61 61 61 62 62 62 62 62 62 61 61 61 61 60 59 59 59 59 59 59 58 58 58 57 57 57
40 40 37 35 33 30 28 30 27 29 28 26 30 28 27 28 29 32 34 33 31 31 32 34 35 35 34 34 36 36 38 38 37 36 37 38 39 38 39 39 38 43 50 53 54 55 56 56 57 57 57 57 58 58 59 59 59 60 60 60 60 60 60 60 60 60 59 60 60 60 60 60 60 61 61 61 61 62 62 62 62 61 61 60 59 59 59 59 59 59 58 58 58 58 57 56 56
40 39 38 35 33 31 30 27 28 24 20 22 23 28 29 28 31 31 31 31 31 32 32 31 29 30 33 33 32 32 33 36 38 36 36 36 37 38 38 39 39 39 45 51 53 54 55 56 56 57 57 57 57 58 59 59 59 59 60 60 60 60 59 59 59 59 59 59 60 60 60 60 60 60 61 60 60 61 62 62 62 62 61 61 60 60 59 59 59 59 58 58 58 57 57 55 55
39 39 35 35 37 31 28 30 29 26 22 23 23 26 28 28 27 28 28 28 29 29 29 29 28 28 28 29 30 31 33 35 36 37 37 38 37 39 38 37 38 39 40 46 51 53 54 55 56 56 57 57 57 57 58 59 59 59 59 60 60 60 59 59 59 59 59 59 59 60 60 60 60 60 60 59 60 60 61 62 62 62 61 61 60 60 60 59 59 59 58 57 57 55 56 55 52
39 37 36 39 39 38 32 26 24 22 21 21 26 23 23 21 21 27 26 27 28 28 27 27 27 28 26 28 29 31 32 35 36 35 36 36 36 37 38 39 38 38 39 40 45 51 54 55 55 56 56 56 57 57 57 58 58 58 59 59 60 60 60 59 59 59 59 58 59 59 59 59 59 59 59 59 60 60 61 58 61 61 61 61 60 60 59 59 58 58 57 56 55 53 54 52 51
38 37 39 34 32 29 32 29 24 21 22 20 21 25 23 23 20 24 27 26 26 27 27 27 27 27 27 27 28 30 32 34 36 36 35 35 35 35 35 37 38 38 38 38 39 41 47 50 53 55 55 56 57 57 57 57 58 58 59 58 59 59 60 60 59 59 58 58 58 58 58 59 58 58 58 59 59 60 60 60 61 60 60 59 59 59 58 58 57 56 55 54 52 52 51 50 49
42 40 36 38 34 31 30 29 26 24 20 14 17 23 22 27 24 21 22 27 28 28 28 28 28 28 27 27 29 30 30 34 37 38 37 37 37 36 36 35 35 36 37 38 39 39 39 42 47 50 51 51 52 54 55 56 57 58 58 58 58 59 59 59 59 59 58 58 58 58 58 58 58 57 58 59 59 59 59 60 59 59 58 58 58 57 57 57 56 55 53 52 51 51 50 48 46
36 37 36 36 33 34 33 30 26 22 16 16 15 15 19 24 28 24 22 22 25 24 24 28 30 29 29 29 30 30 32 35 37 37 38 38 38 39 40 40 39 40 40 40 40 40 40 40 41 43 46 47 49 51 53 55 56 57 57 57 58 58 58 59 58 58 58 58 58 57 58 58 56 57 58 58 58 59 59 59 59 57 57 57 57 56 56 55 54 52 51 51 49 49 48 47 45
39 37 35 35 33 30 29 28 30 25 22 20 16 16 19 25 28 27 26 25 25 27 26 29 31 30 31 31 30 33 36 37 36 36 37 38 38 39 39 40 40 40 41 41 41 41 41 41 42 43 43 44 46 47 49 51 51 53 54 55 56 55 56 56 56 57 57 57 57 57 56 54 56 56 56 57 58 58 58 59 58 57 56 56 56 56 54 53 52 51 49 49 49 49 48 45 44